Martinsburg, WV

4:20 AM EDT on March 27, 2017 (GMT -0400)
Eastern W Va Regional-Shepherd

Weather History for KMRB - June, 2012

Change the Weather History Date:

Wednesday, June 6, 2012

  Actual Average Record
Temperature  
Mean Temperature 61 °F 68 °F  
Max Temperature 73 °F 79 °F 99 °F (1930)
Min Temperature 48 °F 56 °F 41 °F (1927)
Degree Days  
Heating Degree Days 4 2  
Month to date heating degree days 14 12  
Since 1 June heating degree days 14 12  
Since 1 July heating degree days 4012 5237  
Cooling Degree Days 0 4  
Month to date cooling degree days 4 22  
Year to date cooling degree days 158 79  
Since 1 June cooling degree days 4 22  
Growing Degree Days 10 (Base 50)    
Moisture  
Dew Point 49 °F    
Average Humidity 67    
Maximum Humidity 93    
Minimum Humidity 41    
Precipitation  
Precipitation 0.00 in 0.13 in 0.93 in (2000)
Month to date precipitation 0.84 0.77  
Year to date precipitation 14.69 16.50  
Sea Level Pressure  
Sea Level Pressure 29.99 in    
Wind  
Wind Speed 3 mph (SSW)    
Max Wind Speed 8 mph    
Max Gust Speed 20 mph    
Visibility 10 miles    
Events      
T = Trace of Precipitation, MM = Missing Value Source: NWS Daily Summary

Daily Weather History Graph

Daily Weather History Graph

Search for Another Location

Airport or City:

Trip Planner

Search our weather history database for the weather conditions in past years. The results will help you decide how hot, cold, wet, or windy it might be!

Date:

Astronomy

Jun. 06, 2012 Rise Set
Actual Time 5:45 AM EDT 8:36 PM EDT
Civil Twilight 5:13 AM EDT 9:08 PM EDT
Nautical Twilight 4:32 AM EDT 9:48 PM EDT
Astronomical Twilight 3:46 AM EDT 10:35 PM EDT
Moon 10:47 PM EDT (6/6) 8:03 AM EDT (6/6)
Length of Visible Light 15h 55m
Length of Day
14h 51m
Waning Gibbous, 93% of the Moon is Illuminated
Jun 6
Waning Gibbous
Jun 11
Last Quarter
Jun 19
New
Jun 26
First Quarter
Jul 3
Full

Hourly Weather History & Observations

Time (EDT) Temp. Dew Point Humidity Pressure Visibility Wind Dir Wind Speed Gust Speed Precip Events Conditions
12:53 AM 53.1 °F 50.0 °F 89% 29.97 in 10.0 mi Calm Calm - N/A   Clear
1:53 AM 52.0 °F 48.9 °F 89% 29.97 in 10.0 mi Calm Calm - N/A   Clear
2:53 AM 51.8 °F 48.2 °F 88% 29.97 in 10.0 mi Calm Calm - N/A   Clear
3:53 AM 50.0 °F 48.0 °F 93% 29.97 in 10.0 mi Calm Calm - N/A   Clear
4:53 AM 48.9 °F 46.9 °F 93% 29.98 in 10.0 mi Calm Calm - N/A   Clear
5:53 AM 48.0 °F 46.0 °F 93% 30.00 in 10.0 mi Calm Calm - N/A   Clear
6:53 AM 52.0 °F 48.9 °F 89% 30.01 in 10.0 mi Calm Calm - N/A   Clear
7:53 AM 57.0 °F 51.1 °F 81% 30.01 in 10.0 mi Variable 4.6 mph - N/A   Clear
8:53 AM 61.0 °F 52.0 °F 72% 30.02 in 10.0 mi Calm Calm - N/A   Clear
9:53 AM 66.0 °F 50.0 °F 56% 30.02 in 10.0 mi Calm Calm - N/A   Clear
10:53 AM 68.0 °F 48.9 °F 50% 30.02 in 10.0 mi South 3.5 mph - N/A   Clear
11:53 AM 70.0 °F 48.0 °F 46% 30.02 in 10.0 mi Variable 3.5 mph - N/A   Clear
12:53 PM 71.1 °F 46.0 °F 41% 30.01 in 10.0 mi Variable 3.5 mph - N/A   Clear
1:53 PM 71.1 °F 48.9 °F 45% 30.00 in 10.0 mi SE 9.2 mph - N/A   Partly Cloudy
2:53 PM 71.1 °F 48.9 °F 45% 29.98 in 10.0 mi WSW 4.6 mph - N/A   Mostly Cloudy
3:53 PM 70.0 °F 48.9 °F 47% 29.98 in 10.0 mi SW 5.8 mph - N/A   Overcast
4:53 PM 72.0 °F 50.0 °F 46% 29.96 in 10.0 mi Variable 5.8 mph - N/A   Mostly Cloudy
5:53 PM 73.4 °F 48.2 °F 41% 29.97 in 10.0 mi West 4.6 mph - N/A   Clear
6:53 PM 71.1 °F 48.0 °F 44% 29.96 in 10.0 mi South 3.5 mph - N/A   Clear
7:53 PM 69.1 °F 50.0 °F 51% 29.97 in 10.0 mi Calm Calm - N/A   Scattered Clouds
8:53 PM 64.0 °F 52.0 °F 65% 29.99 in 10.0 mi South 3.5 mph - N/A   Clear
9:53 PM 62.1 °F 52.0 °F 70% 30.01 in 10.0 mi SSW 3.5 mph - N/A   Mostly Cloudy
10:53 PM 59.0 °F 52.0 °F 78% 30.01 in 10.0 mi South 3.5 mph - N/A   Mostly Cloudy
11:53 PM 57.9 °F 51.1 °F 78% 30.02 in 10.0 mi South 3.5 mph - N/A   Scattered Clouds